Wind_Speed
25 25 26 27 26 25 24 23 22 22 20 19 18 15 15 14 14 15 15 6 10 19 21 19 18 16 25 19 26 27 8 20 25 18 6 13 10 14 14 16 19 17 9 7 12
28 28 28 28 26 24 23 23 22 21 19 18 16 16 13 10 12 20 10 6 17 19 12 10 20 12 21 15 21 15 18 29 12 9 10 10 12 22 11 16 12 18 17 12 15
27 29 29 29 26 24 22 20 20 20 19 17 17 19 12 11 5 21 16 18 19 18 12 11 18 19 19 25 25 33 24 19 12 20 21 14 9 20 13 10 19 25 26 20 23
28 30 31 28 25 22 19 18 19 18 13 14 15 10 12 14 4 28 20 15 16 17 18 9 12 14 6 17 36 20 31 25 20 16 18 18 10 9 24 18 26 35 33 21 28
30 32 32 29 25 21 16 17 18 14 16 18 13 14 8 14 19 25 15 14 18 19 14 10 16 11 19 12 26 27 20 20 29 11 22 25 18 19 19 27 18 21 28 32 30
30 32 33 30 26 18 14 16 13 12 17 16 10 8 10 9 28 18 18 19 21 25 25 13 11 15 15 15 23 10 29 30 22 15 14 14 11 14 12 23 33 20 26 34 32
31 33 35 30 27 15 12 15 11 11 16 14 22 14 3 13 29 13 23 25 26 26 28 25 17 13 7 7 22 22 18 14 18 27 7 18 16 28 10 19 28 27 27 31 36
32 34 34 30 26 14 8 18 21 22 17 11 28 10 4 26 24 20 34 33 29 28 27 24 6 16 12 9 6 12 10 15 18 12 15 9 34 20 26 19 20 27 28 32 38
34 35 34 29 23 14 5 3 12 23 37 11 33 6 7 34 35 18 33 41 36 18 9 10 6 10 7 7 8 7 8 21 7 22 11 24 11 8 30 30 20 25 27 33 34
34 36 34 27 21 17 14 4 5 5 40 13 30 9 22 32 29 22 40 39 16 18 9 3 6 3 3 7 10 5 4 7 24 14 22 22 21 4 25 30 28 26 28 29 34
38 35 33 22 20 18 23 7 2 1 21 21 24 21 30 40 19 34 42 33 19 9 5 6 2 5 5 7 14 15 4 7 4 13 21 29 17 21 4 24 30 29 28 31 33
37 36 31 20 21 17 22 17 6 2 2 19 31 28 40 37 13 38 41 20 8 6 8 4 0 6 11 10 13 15 16 7 7 10 9 18 22 21 14 12 25 30 28 30 31
33 35 31 24 11 18 18 18 9 3 2 11 19 25 36 30 10 32 38 20 4 7 11 2 4 11 9 10 7 4 16 15 11 2 10 13 17 19 23 21 19 23 30 35 35
30 36 33 25 9 20 15 12 9 3 4 11 17 14 32 32 11 28 37 11 5 8 8 3 7 10 7 4 7 4 10 8 9 4 4 11 8 17 19 24 13 16 25 32 34
31 34 33 31 19 25 15 8 7 2 6 21 9 18 35 17 16 29 38 9 4 11 4 8 14 11 11 8 8 4 2 15 10 6 1 4 4 3 17 15 23 12 23 29 35
27 31 29 31 29 20 14 6 9 6 4 9 10 16 19 19 16 20 23 30 4 6 4 4 13 6 8 16 9 6 3 5 3 3 5 7 3 2 4 10 12 15 23 29 31
24 29 33 28 32 15 13 2 5 7 6 12 10 17 15 16 10 14 15 19 15 9 8 7 5 9 21 9 9 13 5 4 4 3 4 9 6 2 9 9 6 8 12 31 31
20 24 25 26 22 14 11 7 9 3 4 6 8 15 7 12 10 13 8 17 10 8 3 5 8 16 16 6 8 7 1 2 3 4 4 4 5 1 4 9 18 15 12 13 28
11 23 26 28 18 23 7 6 4 3 7 9 12 6 6 10 7 10 9 11 3 15 6 6 5 5 15 1 12 7 5 1 1 1 4 4 3 4 14 16 18 21 5 10 23
11 14 30 22 26 11 8 8 1 3 5 3 6 5 5 9 10 11 11 5 13 15 12 4 5 5 8 9 8 4 5 3 4 3 4 3 3 7 18 16 14 13 18 7 17
10 3 28 17 8 19 5 4 1 2 6 3 3 4 5 5 3 6 6 8 9 17 10 2 3 6 6 15 11 12 5 4 1 1 3 2 3 8 12 11 10 11 15 15 4
4 4 19 18 10 5 3 2 3 3 4 3 2 3 3 5 4 4 4 5 21 16 11 3 3 3 1 2 8 13 7 3 2 5 3 2 2 8 9 9 13 15 18 12 9
4 4 9 18 4 3 3 2 1 4 3 4 3 2 1 3 4 2 4 12 16 12 12 6 4 5 6 3 12 8 21 10 2 1 7 3 3 8 9 10 15 14 18 15 9
4 3 7 12 8 3 3 3 4 2 2 3 3 4 4 2 3 5 4 6 20 14 22 4 3 3 2 3 5 12 23 21 9 4 5 6 5 12 11 10 13 17 17 15 15
6 3 3 4 6 2 1 1 4 5 1 4 2 2 3 3 5 3 4 7 6 15 12 5 3 4 4 5 2 14 16 17 15 11 5 7 6 11 13 11 14 16 15 16 16
4 2 1 2 2 2 4 1 2 4 3 3 3 5 5 4 7 5 1 1 4 10 5 7 3 3 3 8 2 3 16 13 11 10 5 8 3 11 16 17 18 17 15 15 14
9 4 0 1 1 2 3 4 4 1 5 7 6 1 1 6 11 18 18 14 8 7 7 8 4 5 4 6 3 4 8 8 3 4 3 5 5 7 7 11 15 14 15 12 11
Wind_Direction
15 12 6 5 3 1 358 352 348 343 339 338 340 343 333 331 325 319 297 271 305 317 306 239 245 231 228 246 211 212 221 225 218 207 212 186 180 196 214 205 205 197 216 204 206
13 9 6 7 8 5 0 356 351 348 348 351 357 353 339 346 357 19 348 340 314 329 319 272 253 257 231 224 216 206 227 232 212 206 199 193 191 190 185 193 211 203 209 222 195
13 10 10 12 12 7 3 3 360 358 359 357 0 0 13 356 26 8 353 328 327 324 308 306 260 252 241 236 224 230 231 221 200 193 201 205 197 200 191 203 198 202 203 211 186
15 12 10 16 13 9 13 10 357 3 17 354 337 27 37 27 42 345 327 324 340 343 322 300 284 240 251 219 234 251 231 244 216 208 188 206 210 215 207 206 220 224 219 208 180
16 11 11 12 14 11 13 11 11 38 20 17 70 50 61 44 355 345 328 323 333 336 338 301 304 272 245 248 221 241 244 232 239 195 195 205 213 219 225 214 222 215 214 214 195
15 11 9 11 14 12 21 24 48 43 25 37 18 335 16 38 350 346 335 308 322 324 316 291 258 285 308 254 241 271 242 250 258 227 224 198 216 205 225 218 220 215 210 206 201
13 9 8 9 11 17 35 46 49 5 353 346 354 313 283 13 353 327 341 335 325 309 302 298 264 249 314 293 253 256 257 261 235 242 231 208 240 230 193 202 220 220 221 211 206
14 8 6 5 7 24 69 68 51 34 13 346 353 29 2 339 344 346 343 326 309 309 291 287 242 236 231 280 316 241 240 229 220 226 234 211 238 223 206 199 202 213 211 212 211
14 7 3 2 7 31 15 126 62 35 28 356 21 42 19 339 349 340 349 337 326 335 309 252 265 206 211 223 254 193 236 231 232 214 210 204 231 207 204 205 204 207 207 208 207
11 6 2 360 11 29 26 200 146 16 33 28 18 27 345 336 343 353 342 342 337 350 351 312 178 215 223 228 234 225 193 237 224 203 209 231 224 167 195 202 212 214 214 211 204
12 8 1 0 16 22 37 83 296 345 33 44 11 6 345 347 6 357 350 349 4 12 13 345 259 240 333 311 288 258 267 231 327 211 203 217 225 215 214 206 207 204 208 210 209
8 8 4 3 16 15 29 63 59 27 359 21 9 3 357 353 338 355 353 4 359 349 352 19 213 313 317 293 303 250 246 267 297 233 294 215 226 217 237 208 210 210 205 204 207
8 7 8 3 13 15 25 51 48 35 46 6 2 360 355 353 329 343 357 345 349 331 344 283 279 317 311 299 290 243 214 231 240 326 290 204 222 210 219 238 211 215 213 211 208
9 7 7 15 12 20 21 21 16 338 68 4 350 1 353 354 349 356 360 338 351 328 339 5 310 331 282 219 234 218 204 209 177 176 252 193 213 214 204 210 212 209 212 214 210
14 11 5 20 22 23 11 5 5 95 43 327 325 335 341 24 311 346 4 2 7 330 8 341 335 348 4 327 319 268 213 171 184 145 228 333 225 270 192 201 210 205 215 214 210
14 13 14 19 18 12 5 1 26 42 321 334 323 337 341 348 342 336 3 22 24 333 16 284 2 349 330 305 328 306 155 132 108 140 213 147 65 338 155 244 213 215 216 220 209
18 18 16 18 9 6 8 37 40 61 332 336 326 334 322 340 333 359 352 13 28 348 6 325 327 354 358 348 349 12 52 143 154 171 210 159 149 31 330 334 306 299 255 216 212
20 19 22 23 17 19 33 58 65 320 294 307 316 321 335 1 334 339 346 16 28 11 310 352 9 8 355 49 300 302 132 102 118 147 175 236 159 164 326 324 360 340 266 225 206
8 15 22 22 22 39 73 35 144 280 305 314 318 355 323 338 4 358 354 5 341 6 3 345 307 334 8 12 12 327 30 290 243 222 100 328 348 265 360 8 1 355 264 209 196
4 14 16 11 26 37 61 97 143 255 309 329 9 20 322 320 347 10 351 321 351 0 349 297 308 5 345 344 28 75 311 19 5 41 47 345 45 335 347 346 351 357 360 19 183
7 46 6 8 25 48 73 89 290 313 4 355 323 293 286 300 313 315 287 293 11 339 333 283 77 313 354 29 7 11 13 349 204 301 146 133 353 337 332 339 350 351 4 16 118
32 46 2 2 44 39 52 4 340 310 338 351 291 259 255 307 304 308 313 221 345 335 347 272 111 311 206 178 45 34 3 321 41 353 33 100 340 339 331 348 359 357 4 29 49
48 15 1 26 56 19 342 356 262 346 339 353 308 6 268 278 347 241 303 291 349 357 3 324 5 345 352 3 16 21 10 5 189 92 23 62 324 336 353 10 359 7 15 37 54
36 26 18 46 67 92 17 352 327 319 267 318 266 352 340 299 218 291 296 300 337 353 1 42 62 99 68 296 333 4 12 18 36 45 44 53 0 359 10 358 357 9 21 33 54
39 73 31 346 20 47 173 355 337 345 282 332 263 150 220 298 317 269 309 307 322 4 11 62 56 12 283 301 244 25 19 21 34 20 46 343 24 350 353 352 360 15 18 33 45
51 23 93 112 327 323 339 271 295 301 223 291 187 309 165 188 187 271 20 174 256 332 27 4 332 16 291 351 313 57 19 17 33 17 14 351 0 345 331 4 9 13 24 26 34
32 17 270 245 67 68 233 229 246 300 234 244 258 15 223 234 257 277 272 256 270 321 323 357 353 18 300 354 17 5 355 354 354 29 330 4 314 324 335 358 360 9 27 23 24
Height
1511 1508 1504 1500 1496 1493 1489 1486 1483 1480 1477 1474 1471 1469 1470 1467 1465 1463 1461 1463 1463 1461 1457 1457 1458 1459 1462 1458 1458 1461 1455 1440 1449 1459 1462 1463 1467 1470 1472 1477 1479 1481 1481 1483 1483
1511 1507 1503 1499 1495 1492 1488 1485 1482 1479 1476 1474 1470 1468 1466 1465 1465 1462 1460 1461 1460 1458 1453 1453 1454 1456 1454 1451 1451 1447 1440 1428 1443 1452 1455 1459 1462 1464 1469 1472 1475 1477 1478 1480 1482
1511 1507 1503 1499 1495 1491 1488 1485 1481 1478 1475 1473 1470 1468 1466 1465 1464 1465 1464 1462 1458 1454 1453 1451 1451 1452 1448 1447 1444 1438 1417 1435 1437 1444 1452 1456 1458 1460 1461 1466 1466 1470 1473 1475 1479
1511 1507 1503 1499 1496 1492 1488 1485 1481 1478 1475 1473 1470 1469 1467 1466 1470 1464 1462 1460 1457 1453 1450 1448 1448 1445 1444 1438 1443 1438 1430 1435 1437 1440 1446 1449 1454 1452 1454 1456 1461 1465 1470 1471 1476
1511 1507 1503 1500 1496 1492 1488 1485 1481 1478 1475 1472 1470 1470 1468 1467 1468 1463 1459 1456 1454 1451 1449 1447 1446 1442 1436 1438 1436 1431 1430 1433 1435 1437 1440 1444 1444 1447 1446 1453 1457 1460 1463 1467 1471
1512 1508 1503 1499 1495 1491 1488 1485 1482 1480 1477 1475 1473 1471 1468 1468 1466 1461 1457 1453 1450 1447 1444 1445 1442 1439 1436 1431 1432 1427 1429 1430 1434 1435 1438 1439 1440 1444 1441 1449 1453 1456 1459 1462 1465
1512 1508 1502 1498 1495 1491 1489 1485 1484 1481 1478 1475 1473 1468 1467 1470 1463 1458 1454 1450 1447 1443 1438 1437 1438 1439 1433 1428 1426 1426 1427 1427 1428 1430 1433 1438 1439 1420 1439 1443 1448 1451 1456 1458 1462
1513 1507 1503 1498 1494 1491 1489 1487 1485 1483 1479 1475 1472 1465 1467 1466 1462 1458 1451 1443 1439 1435 1431 1429 1431 1433 1431 1432 1429 1426 1426 1423 1421 1426 1427 1434 1406 1432 1437 1440 1443 1446 1450 1453 1456
1513 1508 1503 1498 1494 1490 1488 1487 1486 1483 1478 1474 1473 1467 1470 1464 1458 1455 1452 1443 1430 1426 1424 1425 1426 1427 1428 1426 1426 1419 1410 1418 1419 1418 1425 1423 1422 1426 1431 1435 1438 1441 1444 1448 1451
1514 1508 1503 1498 1494 1490 1486 1485 1484 1484 1479 1473 1474 1474 1472 1467 1458 1454 1447 1439 1429 1424 1421 1422 1423 1424 1422 1424 1415 1415 1413 1409 1407 1414 1418 1416 1416 1422 1424 1430 1433 1436 1440 1444 1446
1515 1509 1503 1497 1493 1490 1486 1483 1487 1486 1482 1486 1487 1483 1475 1467 1458 1453 1443 1430 1428 1427 1428 1424 1424 1428 1428 1424 1418 1414 1412 1409 1411 1407 1410 1409 1417 1420 1423 1423 1425 1430 1435 1439 1442
1516 1509 1503 1497 1493 1490 1485 1483 1486 1489 1487 1487 1486 1482 1474 1465 1457 1451 1444 1436 1434 1432 1429 1430 1440 1430 1423 1419 1416 1407 1412 1412 1408 1414 1420 1408 1411 1419 1420 1420 1422 1426 1429 1433 1439
1517 1510 1504 1497 1493 1490 1486 1485 1486 1487 1488 1488 1485 1481 1475 1468 1463 1454 1446 1440 1437 1434 1433 1432 1433 1427 1422 1418 1415 1405 1406 1407 1409 1408 1410 1406 1410 1413 1413 1419 1419 1422 1425 1431 1433
1518 1511 1505 1498 1495 1490 1488 1487 1487 1487 1498 1494 1487 1486 1478 1470 1466 1460 1452 1447 1441 1440 1436 1432 1429 1425 1423 1418 1411 1411 1399 1400 1407 1413 1412 1403 1394 1402 1404 1411 1416 1417 1421 1425 1430
1520 1513 1506 1496 1495 1491 1492 1489 1487 1488 1521 1499 1494 1490 1484 1481 1476 1461 1457 1447 1448 1443 1444 1437 1429 1423 1417 1417 1414 1400 1394 1396 1402 1407 1412 1409 1404 1393 1401 1405 1406 1409 1415 1421 1426
1522 1517 1511 1503 1497 1494 1492 1490 1488 1500 1542 1510 1502 1494 1487 1479 1475 1468 1462 1453 1448 1445 1439 1439 1433 1427 1426 1413 1407 1398 1395 1399 1405 1410 1409 1411 1415 1402 1407 1411 1407 1411 1412 1416 1423
1525 1519 1511 1505 1500 1495 1492 1492 1507 1530 1525 1516 1509 1502 1495 1486 1477 1473 1467 1459 1464 1461 1457 1445 1435 1429 1426 1414 1408 1410 1410 1394 1400 1408 1406 1403 1408 1421 1428 1426 1422 1417 1412 1412 1418
1526 1522 1516 1509 1506 1498 1494 1500 1526 1535 1532 1522 1516 1507 1502 1494 1486 1481 1479 1470 1468 1471 1471 1468 1439 1435 1433 1433 1433 1425 1421 1418 1395 1395 1405 1403 1408 1421 1429 1425 1417 1412 1413 1412 1416
1526 1524 1518 1514 1508 1503 1498 1529 1549 1542 1536 1529 1517 1517 1511 1501 1502 1491 1488 1481 1482 1474 1479 1474 1458 1443 1435 1435 1433 1426 1424 1425 1416 1412 1409 1432 1428 1430 1424 1419 1417 1416 1411 1413 1415
1526 1524 1520 1517 1512 1506 1510 1530 1542 1538 1535 1533 1534 1527 1527 1513 1509 1502 1494 1484 1482 1479 1476 1472 1466 1446 1441 1434 1433 1436 1435 1417 1420 1403 1422 1436 1444 1439 1432 1430 1426 1422 1418 1414 1415
1525 1525 1524 1520 1516 1512 1531 1540 1539 1537 1536 1535 1534 1532 1529 1525 1519 1515 1507 1490 1486 1478 1474 1476 1479 1458 1449 1454 1453 1442 1446 1444 1445 1433 1438 1425 1453 1449 1443 1438 1434 1429 1424 1419 1417
1526 1527 1527 1521 1519 1528 1538 1538 1538 1536 1536 1534 1533 1531 1531 1526 1523 1519 1510 1502 1491 1487 1479 1474 1481 1479 1462 1457 1458 1459 1455 1453 1446 1438 1447 1457 1465 1453 1451 1443 1438 1434 1429 1423 1418
1528 1530 1530 1524 1536 1539 1539 1538 1537 1536 1535 1534 1533 1531 1529 1530 1529 1524 1510 1495 1493 1489 1486 1480 1485 1480 1464 1460 1457 1457 1457 1451 1446 1443 1452 1448 1469 1457 1449 1444 1445 1440 1435 1429 1426
1530 1533 1533 1531 1538 1540 1541 1540 1537 1535 1534 1534 1532 1530 1530 1528 1524 1525 1514 1499 1494 1492 1484 1481 1496 1493 1486 1483 1478 1474 1466 1460 1451 1451 1459 1461 1463 1460 1458 1457 1448 1442 1437 1435 1430
1534 1540 1540 1542 1540 1542 1541 1540 1539 1537 1534 1532 1532 1530 1534 1537 1530 1524 1514 1505 1496 1495 1492 1494 1501 1497 1487 1482 1480 1481 1479 1475 1473 1472 1471 1471 1468 1472 1464 1457 1451 1445 1444 1439 1435
1538 1540 1540 1540 1541 1541 1541 1542 1539 1537 1536 1532 1534 1528 1532 1536 1528 1531 1524 1521 1517 1500 1502 1502 1501 1499 1495 1483 1478 1481 1482 1480 1480 1481 1478 1475 1473 1472 1466 1459 1455 1453 1448 1445 1442
1540 1540 1539 1540 1540 1543 1542 1540 1537 1536 1531 1529 1529 1530 1532 1523 1518 1516 1516 1515 1514 1515 1509 1508 1511 1509 1500 1489 1485 1489 1492 1489 1487 1489 1487 1481 1480 1475 1469 1466 1464 1459 1453 1451 1448